GW3137 Weather Reports


time (UTC)temp
C
wind
direction
speed
KPH
gust
KPH
rain 1hr
cm
rain 24hr
cm
rain mn
cm
humidity
%
barometer
mb
20260503060204 18 89 0.0 8.0 0.00 0.00 0.00 57 1014.0
20260503053704 18 29 1.6 4.8 0.00 0.00 0.00 58 1013.8
20260503050704 19 38 1.6 4.8 0.00 0.00 0.00 53 1013.8
20260503043704 20 32 4.8 11.3 0.00 0.00 0.00 50 1013.6
20260503043204 20 27 4.8 14.5 0.00 0.00 0.00 50 1013.5
20260503040204 20 24 4.8 12.9 0.00 0.00 0.00 53 1013.4
20260503033704 20 30 1.6 4.8 0.00 0.00 0.00 59 1012.9
20260503033204 21 34 1.6 11.3 0.00 0.00 0.00 58 1012.9
20260503023704 23 0 3.2 9.7 0.00 0.00 0.00 54 1012.2
20260503020205 24 312 6.4 14.5 0.00 0.00 0.00 51 1012.3
20260503013704 25 324 4.8 19.3 0.00 0.00 0.00 49 1012.4
20260503010704 25 311 1.6 4.8 0.00 0.00 0.00 47 1012.5
20260503003203 25 8 3.2 19.3 0.00 0.00 0.00 48 1012.6
20260503000204 26 343 4.8 19.3 0.00 0.00 0.00 46 1012.7
20260502233204 25 293 9.7 22.5 0.00 0.00 0.00 48 1013.1
20260502230704 24 327 8.0 19.3 0.00 0.00 0.00 50 1013.4
20260502230204 24 254 9.7 22.5 0.00 0.00 0.00 49 1013.5
20260502223704 24 289 8.0 19.3 0.00 0.00 0.00 51 1013.8
20260502223204 25 292 4.8 22.5 0.00 0.00 0.00 51 1013.9
20260502220704 24 349 3.2 16.1 0.00 0.00 0.00 56 1014.1
20260502220205 24 298 4.8 20.9 0.00 0.00 0.00 54 1014.2
20260502213204 23 276 6.4 20.9 0.00 0.00 0.00 55 1014.5
20260502210704 22 294 8.0 19.3 0.00 0.00 0.00 58 1014.7
20260502210204 22 303 8.0 19.3 0.00 0.00 0.00 56 1014.8
20260502203703 22 291 8.0 16.1 0.00 0.00 0.00 57 1014.9
20260502203204 22 299 4.8 20.9 0.00 0.00 0.00 60 1014.9
20260502200704 21 285 4.8 16.1 0.00 0.00 0.00 62 1015.3
20260502200204 21 328 6.4 19.3 0.00 0.00 0.00 62 1015.3
20260502193704 20 294 4.8 14.5 0.00 0.00 0.00 64 1015.6
20260502193204 20 331 3.2 20.9 0.00 0.00 0.00 65 1015.6
20260502190704 18 309 9.7 19.3 0.00 0.00 0.00 67 1016.0
20260502183703 18 304 4.8 12.9 0.00 0.00 0.00 70 1016.2
20260502180204 16 275 3.2 19.3 0.00 0.00 0.00 73 1016.2
20260502170204 15 339 4.8 14.5 0.00 0.00 0.00 78 1016.5
20260502163704 14 3 4.8 12.9 0.00 0.00 0.00 79 1016.8
20260502163204 14 332 3.2 8.0 0.00 0.00 0.00 80 1016.9
20260502160703 13 299 1.6 4.8 0.00 0.00 0.00 84 1016.9
20260502160203 13 298 3.2 4.8 0.00 0.00 0.00 84 1016.9
20260502130704 11 140 0.0 0.0 0.00 0.00 0.00 89 1016.5
20260502130204 11 140 0.0 3.2 0.00 0.00 0.00 89 1016.5
20260502123704 11 139 1.6 4.8 0.00 0.00 0.00 88 1016.7
20260502123204 11 150 3.2 4.8 0.00 0.00 0.00 88 1016.9
20260502113704 12 179 3.2 4.8 0.00 0.00 0.00 87 1016.8
20260502113204 12 330 0.0 4.8 0.00 0.00 0.00 86 1016.6
20260502110704 11 172 3.2 9.7 0.00 0.00 0.00 86 1017.2
20260502103704 12 173 1.6 4.8 0.00 0.00 0.00 85 1016.8
20260502103204 12 170 1.6 4.8 0.00 0.00 0.00 86 1016.6
20260502100704 12 204 0.0 3.2 0.00 0.00 0.00 84 1016.4
20260502100204 12 319 0.0 4.8 0.00 0.00 0.00 83 1016.3
20260502090703 13 225 0.0 4.8 0.00 0.00 0.00 79 1016.4
20260502090204 13 172 3.2 4.8 0.00 0.00 0.00 78 1016.4
20260502070704 16 324 0.0 0.0 0.00 0.00 0.00 64 1016.2